www.pogodaiklimat.ru

Погода и климат >> Архив погоды >> Албания >> Кукес


ПОГОДА в Кукесе

  • Прогноз погоды в Кукесе
  • Монитор погоды в Кукесе

АРХИВ ПОГОДЫ в Кукесе

Время (UTC), дата Ветер
(напр.,м/с)
 
Видим.   Явления Облачность Т
(С)
Тd
(С)
f
(%)
Тe
(С)
Тes
(С)
Комфортность P
(гПа)
Po
(гПа)
Тmin
(С)
Tmax
(С)
R
(мм)
R24
(мм)
S
(см)
15 13.09 СВ 16 15 км 3/3 1500 м
[Cu hum]
+26.8 +6.8 28 +26 +26 жарко 1023.5 983.3
18 13.09 СВ 10 15 км ясно +24.4 +8.4 36 +25 +25 комфорт 1023.3 982.8 +28.0
21 13.09 СВ 8 10 км ясно +22.0 +9.5 45 +24 +24 комфорт 1025.5 984.5
00 14.09 СВ 8 10 км ясно +19.6 +10.1 54 +20 +20 1026.5 985.1
03 14.09 штиль 0 10 км ясно +17.2 +12.3 73 +17 +17 1027.4 985.7
06 14.09 штиль 0 15 км ясно +14.6 +11.2 80 +14 +17 1027.2 985.1 +14.2
09 14.09 штиль 0 15 км ясно +19.8 +10.2 54 +21 +35 комфорт 1026.6 985.3
12 14.09 штиль 0 15 км ясно +26.4 +8.9 33 +27 +42 жарко 1022.8 982.6
15 14.09 СВ 10 15 км ясно +27.8 +8.1 29 +28 +28 жарко 1021.6 981.6
18 14.09 СВ 14 15 км 3/0
[Ac trans]
+24.8 +8.8 36 +25 +25 комфорт 1022.0 981.6 +28.6
21 14.09 СВ 8 10 км ясно +21.8 +9.7 46 +23 +23 комфорт 1023.2 982.4
00 15.09 СВ 8 10 км ясно +19.4 +10.2 55 +20 +20 1024.4 983.2
03 15.09 штиль 0 10 км ясно +17.0 +11.5 70 +17 +17 1025.6 984.0
06 15.09 штиль 0 15 км ясно +15.0 +11.8 81 +15 +17 1026.5 984.5 +14.6
09 15.09 штиль 0 15 км ясно +19.6 +10.8 57 +21 +34 комфорт 1026.5 985.1
12 15.09 штиль 0 15 км ясно +25.6 +9.8 37 +26 +41 жарко 1023.1 982.8
15 15.09 СЗ 4 15 км ясно +28.2 +8.0 28 +28 +29 жарко 1021.7 981.8
18 15.09 С 4 15 км ясно +25.4 +8.8 35 +26 +26 жарко 1019.2 979.0 +29.4
21 15.09 штиль 0 10 км ясно +20.2 +8.9 48 +21 +21 комфорт 1021.6 980.6
00 16.09 штиль 0 10 км ясно +18.0 +10.2 60 +18 +18 1022.7 981.4
03 16.09 штиль 0 10 км ясно +16.4 +11.3 72 +16 +16 1021.7 980.2
06 16.09 штиль 0 15 км ясно +13.4 +10.8 84 +13 +15 1022.0 980.0 +12.8
09 16.09 штиль 0 15 км ясно +19.4 +10.7 57 +20 +34 опасность
простуды
1021.1 980.0
12 16.09 15 км ясно +26.8 +9.2 33 1017.8 977.8
15 16.09 СВ 4 15 км ясно +28.6 +9.3 30 +29 +30 жарко 1016.3 976.6
18 16.09 штиль 0 15 км ясно +25.8 +10.8 39 +27 +27 жарко 1014.0 974.0 +29.6
21 16.09 штиль 0 10 км ясно +21.6 +10.7 50 +23 +23 комфорт 1015.0 974.4
00 17.09 штиль 0 10 км ясно +19.0 +12.7 67 +20 +20 1016.2 975.2
03 17.09 штиль 0 10 км ясно +17.2 +12.0 71 +17 +17 1016.6 975.4
06 17.09 штиль 0 15 км ясно +16.2 +13.0 81 +16 +18 1016.8 975.4 +15.0
09 17.09 штиль 0 15 км ясно +21.6 +13.2 59 +24 +38 комфорт 1016.4 975.8
12 17.09 штиль 0 15 км ясно +30.0 +10.6 30 +30 +44 жарко 1013.4 974.0
15 17.09 штиль 0 15 км ясно +31.0 +11.5 30 +31 +34 жарко 1012.2 973.0
18 17.09 Ю 8 10 км ясно +27.0 +11.1 37 +28 +28 жарко 1012.2 972.4 +31.8
21 17.09 Ю 6 10 км ясно +23.8 +11.5 46 +25 +25 комфорт 1013.0 972.8
00 18.09 штиль 0 10 км ясно +20.6 +12.8 61 +23 +23 комфорт 1014.3 973.6
03 18.09 штиль 0 10 км ясно +19.8 +13.7 68 +21 +21 комфорт 1014.8 974.0
06 18.09 Ю 6 15 км ясно +19.4 +14.2 72 +21 +21 комфорт 1015.3 974.4 +18.0
09 18.09 штиль 0 15 км 1/0
[As trans]
+24.6 +21.9 85 +32 +44 очень
душно
1015.0 974.8
12 18.09 СВ 10 15 км 1/0
[As trans]
+27.0 +9.4 33 +27 +28 жарко 1014.2 974.3
15 18.09 15 км 1/0
[Ac trans]
+25.8 +6.0 28 1015.3 975.3
18 18.09 СВ 22 15 км 3/0
[Ac trans]
+20.2 +7.9 45 +20 +20 1017.5 976.6 +28.4
21 18.09 СВ 14 10 км 3/0
[Ac trans]
+18.4 +9.4 56 +17 +17 1019.1 977.9
00 19.09 СВ 12 10 км 4/0
[As trans]
+17.2 +10.1 63 +15 +15 1019.3 978.0
03 19.09 СВ 4 10 км 4/0
[As trans]
+16.2 +9.4 64 +16 +16 1019.7 978.2
06 19.09 штиль 0 15 км 5/0
[As trans]
+13.4 +5.7 60 +13 +14 1020.6 978.6 +13.0
09 19.09 СВ 8 15 км 5/0
[Ac trans]
+19.2 +7.6 47 +19 +20 1019.7 978.6
12 19.09 СВ 12 15 км 8/0
[Ac cuf]
+19.4 +6.9 44 +19 +19 1020.5 979.4
15 19.09 С 14 10 км 9/0
[Ac cuf]
+17.6 +9.5 59 +16 +16 1020.3 979.0
18 19.09 С 8 8000 м {дождь} 10/10 1500 м
[Sc]
+13.2 +8.9 75 +10 +10 1021.4 979.4 +20.0 0.2
21 19.09 СВ 2 10 км 9/9 1500 м
[Sc]
+12.0 +9.2 83 +11 +11 1021.6 979.4
00 20.09 штиль 0 10 км 9/9 1500 м
[Sc]
+11.2 +8.8 85 +11 +11 1021.2 978.9
03 20.09 штиль 0 8000 м слаб. дождь 10/10 1500 м
[Sc]
+10.8 +8.1 83 +10 +10 1022.3 979.9
06 20.09 СВ 8 12 км {дождь} 9/9 1500 м
[Sc]
+11.4 +8.0 80 +8 +8 1023.1 980.7 +10.0 3
09 20.09 СВ 10 15 км 3/0
[Ac trans]
+14.0 +6.1 59 +11 +12 1022.9 980.9

 

Местоположение метеостанции Кукес (Албания): широта 43.03 долгота 20.42 высота над уровнем моря 354 м.

В архиве по умолчанию представлена погода в Кукесе за последнюю неделю. Архивные данные за месяц целиком и за предыдущие месяцы, начиная с января 2011 года, Вы можете получить, выбрав интересующий диапазон дат из раскрывающегося списка и нажав кнопку "Ввод!".


*Определитесь, кто Вы:
робот инопланетянин человек

Внимание! Время в таблицах - всемирное. Для получения местного времени необходимо прибавить поправку, которая равна 1 ч.

Смотрите также архив погоды в соседних городах и на ближайших метеорологических станциях:

Погода на Копаонике (Сербия) (42 км)
Погода в Женике (Сербия) (44 км)
Погода в Кралево (Сербия) (78 км)
Погода в Плевле (Черногория) (94 км)
Погода в Пожега Ужичка (Сербия) (94 км)
Погода в Златиборе (Сербия) (96 км)
Погода в Крушеваце (Сербия) (96 км)
Погода в Подгорица-Граде (Черногория) (115 км)
Погода в Крагуеваце (Сербия) (119 км)
Погода в Подгорице (Черногория) (121 км)

Пояснения к столбцам:

Ветер - указаны скорость ветра в м/с - средняя за 10 мин, порывы в срок и между сроками (в фигурных скобках) и направление, откуда дует ветер: С - северный, СВ - северо-восточный, В - восточный, ЮВ - юго-восточный, Ю - южный, ЮЗ - юго-западный, З - западный, СЗ - северо-западный.
Видимость - горизонтальная дальность видимости в метрах или километрах. При видимости от 1 до 10 км при отсутствии осадков обычно наблюдается дымка, при ухудшении видимости до 1 км и менее - туман. В сухую погоду видимость может ухудшаться дымом, пылью или мглою.
Явления - указаны атмосферные явления, наблюдавшиеся в срок или в последний час перед сроком; фигурными скобками обозначены явления, наблюдавшиеся между сроками (за 1-3 часа до срока); квадратными скобками обозначены град или гололедные отложения с указанием их диаметра в мм.
Облачность - указаны через наклонную черту общая и нижняя облачность в баллах и высота нижней границы облаков в метрах; квадратными скобками обозначены формы облаков: Ci - перистые, Cs - перисто-слоистые, Cc - перисто-кучевые, Ac - высококучевые, As - высокослоистые, Sc - слоисто-кучевые, Ns - слоисто-дождевые, Cu - кучевые, Cb - кучево-дождевые. Подробнее классификацию облаков см. в Атласе облаков (PDF).
T - Температура воздуха - температура, измеренная на высоте 2 м над землей.
Td - Температура точки росы - температура, при понижении до которой содержащийся в воздухе водяной пар достигнет насыщения.
f - Относительная влажность воздуха - влажноcть воздуха, измеренная на высоте 2 м над землей.
Te - Эффективная температура - температура, которую ощущает одетый по сезону человек в тени. Характеристика душности погоды. При расчете учитывается влияние влажности воздуха и скорости ветра на теплоощущения человека.
Tes - Эффективная температура на солнце - температура, которую ощущает человек, с поправкой на солнечный нагрев. Характеристика знойности погоды. Зависит от высоты солнца над горизонтом, облачности и скорости ветра. Ночью, в пасмурную погоду, а также при ветре 12 м/с и более поправка равна нулю.
P - Атмосферное давление - приведенное к уровню моря атмосферное давление.
Po - Атмосферное давление - измеренное на уровне метеостанции атмосферное давление.
Tmin - Минимальная температура - минимум температуры воздуха на высоте 2 м над землей.
Tmax - Максимальная температура - максимум температуры воздуха на высоте 2 м над землей.
R - Количество осадков - Количество выпавших осадков за период времени, мм. При наведении курсора мыши на число - период времени, за который выпало указанное количество осадков.
R24 - Количество осадков - Количество выпавших осадков за 24 часа, мм.
S - Снежный покров - Высота снежного покрова, см. При наведении курсора мыши на число - состояние снежного покрова и степень покрытия местности в баллах.